Regional Weather Roundup
Issued by NWS

Home | Current Version | Previous Version | Text Only | Print | Product List | Glossary On
Versions: 1 2 3 4 5 6 7 8 9 10 11 12 13 14 15 16 17 18 19 20 21 22 23 24 25 26 27 28 29 30 31 32 33 34 35 36 37 38 39 40 41 42 43 44 45 46 47 48 49 50
000
ASUS43 KLOT 201208
RWRIL

ILLINOIS REGIONAL WEATHER ROUNDUP
NATIONAL WEATHER SERVICE CHICAGO/ROMEOVILLE IL
600 AM CST MON FEB 20 2017

NOTE: "FAIR" INDICATES FEW OR NO CLOUDS BELOW 12,000 FEET WITH NO
SIGNIFICANT WEATHER AND/OR OBSTRUCTIONS TO VISIBILITY.

* THESE STATIONS ARE NOT UNDER NWS QUALITY CONTROL. THEY ALSO MAY NOT
  REPORT WEATHER SUCH AS PRECIPITATION OR FOG.

ILZ001-002-007-009-015-016-024-201300-
NORTHWEST ILLINOIS

CITY           SKY/WX    TMP DP  RH WIND       PRES   REMARKS
MOLINE         PTCLDY    51  47  86 SE8       30.00F FOG
6HR MIN TEMP:  48; 6HR MAX TEMP:  55;

STERLING*      MOCLDY    44  43  96 E7        30.07R FOG
SAVANNA*       CLOUDY    47  46  94 SE6       30.04R FOG
$$

ILZ003-004-008-010-011-017-018-201300-
NORTH CENTRAL ILLINOIS

CITY           SKY/WX    TMP DP  RH WIND       PRES   REMARKS
ROCKFORD       CLOUDY    46  43  89 SE6       30.10S FOG
6HR MIN TEMP:  46; 6HR MAX TEMP:  50;

FREEPORT*      CLOUDY    43  42  95 SE8       30.08S FOG
ROCHELLE*      CLOUDY    43  42  98 SE9       30.09S FOG
DE KALB*       PTCLDY    45  44  96 SE7       30.11R FOG
PERU*          CLOUDY    44  42  92 SE3       30.09S FOG
$$

ILZ005-006-012>014-019>023-201300-
NORTHEAST ILLINOIS

CITY           SKY/WX    TMP DP  RH WIND       PRES   REMARKS
CHICAGO-OHARE  CLOUDY    46  43  89 S6        30.12R FOG
6HR MIN TEMP:  41; 6HR MAX TEMP:  47;

CHICAGO-MIDWAY CLOUDY    48  43  82 SE3       30.13R FOG
6HR MIN TEMP:  46; 6HR MAX TEMP:  51;

AURORA         PTCLDY    44  41  89 SE7       30.11S FOG
6HR MIN TEMP:  43; 6HR MAX TEMP:  48;

LANSING*       CLOUDY    42  42  99 SE3       30.14R FOG
JOLIET*        CLOUDY    47  46  97 SE6       30.12S FOG
WAUKEGAN       PTCLDY    42  37  82 SE7       30.12R
6HR MIN TEMP:  33; 6HR MAX TEMP:  42;

DUPAGE AIRPORT MOCLDY    45  41  86 SE3       30.11R FOG
6HR MIN TEMP:  40; 6HR MAX TEMP:  48;

KANKAKEE*      CLOUDY    43  42  97 CALM      30.14S FOG
WHEELING       CLOUDY    41  38  89 CALM      30.14R
6HR MIN TEMP:  37; 6HR MAX TEMP:  45;

MORRIS*        FOG       44  43  97 CALM      30.10S VSB 1
ROMEOVILLE*    CLOUDY    46  46 100 S9        30.12R FOG
NORTHERLY ISL    N/A     38  36  92 CALM        N/A
$$

LMZ740>746-201300-
SOUTHERN LAKE MICHIGAN

STATION/POSITION SKY/WX   TEMP    WIND        PRES    VSBY  WAVE
                          AIR SEA DIR/SP/G                  HT/PER
                          (F)     (DEG/KT/KT) (MB)    (MI)  (FT/S)
HARRISON CRIB              43     130/ 16/ 17   N/A
BURNHAM HARBOR             38      CALM  /  2   N/A
CALUMET HARBOR             45     140/  4/ 10 1019.6R
BURNS HARBOR               50     140/  8/ 11 1021.0S
MICHIGAN CITY              46     120/  8/  9   N/A
$$

ILZ025>027-034>036-040-047-049-050-058-095>099-201300-
WEST-CENTRAL ILLINOIS

CITY           SKY/WX    TMP DP  RH WIND       PRES   REMARKS
QUINCY         CLOUDY    53  51  93 SE10      29.98S FOG
GALESBURG*     FOG       49  49 100 SE7         N/A  VSB 3/4
MACOMB*        CLOUDY    50  49  97 SE12      30.04S FOG
JACKSONVILLE*  MOCLDY    49  49  97 E10       30.03F FOG
PITTSFIELD*    MOCLDY    51  50  97 SE9       30.02S FOG
$$

ILZ028>032-037-038-041>044-048-051>054-059>061-201300-
CENTRAL ILLINOIS

CITY           SKY/WX    TMP DP  RH WIND       PRES   REMARKS
PONTIAC        FOG       45  44  97 SE13      30.11S VSB 1/2
BLOOMINGTON    LGT RAIN  47  47 100 SE12      30.10S VSB 1/4
DECATUR        FOG       49  48  97 SE9       30.10F VSB 1/2
PEORIA         FOG       48  48 100 SE8       30.08R VSB 1
6HR MIN TEMP:  48; 6HR MAX TEMP:  53;

LACON*         CLOUDY    45  45 100 S7        30.07S FOG
LINCOLN*       DRZL/FOG  49  49 100 SE9       30.08F VSB 1/2
SPRINGFIELD    CLOUDY    52  50  93 SE13      30.07S FOG
6HR MIN TEMP:  51; 6HR MAX TEMP:  52;

TAYLORVILLE    FOG       50  50 100 SE10      30.08F VSB 1/2
6HR MIN TEMP:  49; 6HR MAX TEMP:  50;

$$

ILZ033-039-045-046-055>057-062-063-201300-
EAST-CENTRAL ILLINOIS

CITY           SKY/WX    TMP DP  RH WIND       PRES   REMARKS
CHAMPAIGN      FOG       44  43  96 SE10      30.13S VSB 1/4
RANTOUL*       DRZL/FOG  46  46 100 SE8       30.14S VSB 1/4
MATTOON        FOG       46  46 100 SE9       30.12S VSB 1/4
PARIS*         FOG       41  41 100 SE6       30.16S VSB 1/4
$$

ILZ079-100>102-201300-
SOUTHWEST ILLINOIS

CITY           SKY/WX    TMP DP  RH WIND       PRES   REMARKS
ALTON          PTCLDY    48  48  98 E8        30.06S FOG
BELLEVILLE     CLOUDY    48  48 100 E6        30.05S FOG
CAHOKIA*       CLOUDY    51  48  89 SE7       30.04S FOG
SPARTA*        CLOUDY    51  50  97 SE8       30.07S FOG
$$

ILZ064>066-069>071-074>076-080>082-084>086-088>090-092>094-201300-
SOUTH-CENTRAL ILLINOIS

CITY           SKY/WX    TMP DP  RH WIND       PRES   REMARKS
CARBONDALE     CLOUDY    48  48 100 E5        30.08S FOG
6HR MIN TEMP:  43; 6HR MAX TEMP:  50;

CAIRO*         CLOUDY    47  47 100 NE5       30.08S FOG
EFFINGHAM*     FOG       46  46 100 E7        30.13F VSB 1
MARION         MOCLDY    52  50  93 SE6       30.10S
MT. VERNON     MOCLDY    49  48  97 E6        30.11S FOG
CENTRALIA*     CLOUDY    49  49 100 E8        30.09S FOG
SALEM*         CLOUDY    49  48  95 E7        30.10S FOG
METROPOLIS*    MOCLDY    51  50  99 CALM      30.10S FOG
$$

ILZ067-068-072-073-078-083-087-091-201300-
SOUTHEAST ILLINOIS

CITY           SKY/WX    TMP DP  RH WIND       PRES   REMARKS
LAWRENCEVILLE  FOG       41  40  96 E5        30.17S VSB 1/4
FLORA*         FOG       46  46  99 SE6       30.12F VSB 1/2
FAIRFIELD*     MOCLDY    46  46 100 CALM      30.12S FOG
HARRISBURG*    CLOUDY    47  47 100 E7        30.11F FOG
ROBINSON*      FOG       41  41 100 SE3       30.17F VSB 1/4
CARMI*           N/A     43  43 100 CALM      30.13S FOG
$$

ABBREVIATIONS USED IN REMARKS
   TC - TEMPERATURE IN CELSIUS
  WCI - WIND CHILL INDEX
   HX - HEAT INDEX
  VSB - VISIBILITY
$$





USA.gov is the U.S. government's official web portal to all federal, state and local government web resources and services.